Location: Moscow
(55.7500°N, 37.5830°E)
Time: 20:53:24
(UTC+03:00)

Tiros 1 - Pass Details

Date: 09 December 2021
Orbit: 629 x 664 km, 48.4° (Epoch: 19 January)

Event Time Altitude Azimuth Distance (km) Brightness Sun altitude
Rises 20:37:15 0° 262° (W) 2,929 11.3 -37.6°
Reaches altitude 10° 20:39:45 10° 252° (WSW) 2,025 10.2 -37.9°
Enters shadow 20:39:58 11° 251° (WSW) 1,955 10.1 -37.9°
